This is the latest recevied weather packets stored in our database for station/object W2GUX. If no packets are shown the sender has not sent any weather packets the latest 10 day(s).
| Time | Temp. | Humidity | Pressure | Rain* | Wind** | Luminosity | Snow |
|---|---|---|---|---|---|---|---|
| 1777833003 | 14.44° C | 27% | 1008.2 hPa | 0 mm | - | - | - |
| 1777832704 | 14.44° C | 26% | 1008.2 hPa | 0 mm | - | - | - |
| 1777832404 | 14.44° C | 27% | 1008.2 hPa | 0 mm | - | - | - |
| 1777832104 | 14.44° C | 26% | 1008.4 hPa | 0 mm | - | - | - |
| 1777831804 | 13.89° C | 26% | 1008.3 hPa | 0 mm | - | - | - |
| 1777831504 | 14.44° C | 26% | 1008.5 hPa | 0 mm | - | - | - |
| 1777831204 | 13.89° C | 28% | 1008.4 hPa | 0 mm | - | - | - |
| 1777830903 | 13.33° C | 27% | 1008.4 hPa | 0 mm | - | - | - |
| 1777830604 | 13.33° C | 28% | 1008.6 hPa | 0 mm | - | - | - |
| 1777830304 | 13.89° C | 27% | 1008.7 hPa | 0 mm | - | - | - |
| 1777830004 | 13.33° C | 30% | 1008.7 hPa | 0 mm | - | - | - |
| 1777829403 | 13.33° C | 27% | 1008.7 hPa | 0 mm | - | - | - |
| 1777829103 | 13.33° C | 29% | 1008.7 hPa | 0 mm | - | - | - |
| 1777828804 | 13.33° C | 29% | 1008.7 hPa | 0 mm | - | - | - |
| 1777828504 | 13.33° C | 28% | 1008.8 hPa | 0 mm | - | - | - |
| 1777828203 | 12.78° C | 31% | 1008.9 hPa | 0 mm | - | - | - |
| 1777827903 | 12.78° C | 33% | 1009 hPa | 0 mm | - | - | - |
| 1777827604 | 12.78° C | 30% | 1008.9 hPa | 0 mm | - | - | - |
| 1777827304 | 12.78° C | 28% | 1009.1 hPa | 0 mm | - | - | - |
| 1777827004 | 12.78° C | 28% | 1009 hPa | 0 mm | - | - | - |
| 1777826703 | 12.78° C | 30% | 1009.2 hPa | 0 mm | - | - | - |
| 1777826403 | 12.22° C | 29% | 1009.2 hPa | 0 mm | - | - | - |
| 1777826103 | 12.22° C | 31% | 1009.2 hPa | 0 mm | - | - | - |
| 1777825804 | 12.22° C | 32% | 1009.2 hPa | 0 mm | - | - | - |
| 1777825504 | 12.22° C | 30% | 1009.3 hPa | 0 mm | - | - | - |
* Rain latest hour (hover to see other rain measurements)
** Current wind speed in m/s (hover to see current wind gust speed)